Wind_Speed
41 42 43 45 46 47 48 49 50 52 54 55 57 58 56 55 55 55 56 56 57 58 60 62 64 66 67 68 69 69 69 69 69 65 63 60 56 53 51 50 49 48 47
43 44 46 47 48 50 51 52 53 55 56 57 58 57 56 57 55 54 54 56 58 60 61 63 64 66 67 68 68 67 66 65 63 58 53 49 47 45 43 42 41 40 40
46 47 49 50 51 53 53 54 56 57 57 59 59 60 59 57 54 54 55 57 59 60 62 64 65 66 66 65 65 63 60 57 53 48 43 41 39 38 38 36 35 35 35
49 50 51 52 53 55 56 56 57 59 61 62 62 61 58 55 53 54 56 57 59 60 62 63 64 63 63 61 57 54 50 47 43 40 36 34 34 34 32 30 29 29 29
51 52 52 53 55 55 57 58 60 62 64 62 60 56 55 53 52 54 56 57 59 60 61 61 60 59 56 52 48 44 41 37 34 32 29 29 29 27 26 24 23 22 23
51 52 52 53 55 57 58 59 61 61 61 60 55 52 51 51 52 54 56 57 58 58 58 56 54 51 47 43 40 36 34 31 28 26 25 23 21 20 18 17 16 16 16
50 51 52 53 55 57 58 59 60 60 58 53 50 49 49 50 52 54 55 55 55 54 52 49 45 42 39 36 32 29 27 24 21 20 18 15 14 13 12 12 12 11 11
49 50 51 53 55 57 58 58 57 55 52 50 48 48 49 50 51 52 52 51 49 47 44 40 36 34 32 28 24 21 18 16 15 13 11 10 9 9 9 8 9 9 9
47 49 50 53 55 55 55 54 52 50 48 46 47 47 48 49 48 48 47 45 41 38 35 32 29 27 23 20 17 14 12 11 9 8 7 7 7 7 8 8 8 8 8
46 49 51 53 53 52 51 49 48 46 45 46 46 46 46 45 44 42 40 36 33 30 28 26 23 20 17 14 11 9 7 6 5 5 6 6 7 7 8 9 9 8 8
47 48 49 49 48 47 46 44 43 43 43 44 43 42 41 39 37 34 30 27 25 24 22 19 16 13 11 8 6 5 5 5 6 6 6 7 7 8 9 9 9 9 9
43 43 44 43 42 42 42 42 42 41 40 39 38 36 34 32 29 26 23 22 20 18 15 12 10 8 6 5 5 6 6 6 7 7 7 8 8 8 9 10 11 11 11
37 37 37 37 38 39 39 39 38 37 35 34 32 30 27 25 22 21 19 17 15 12 9 7 6 5 5 6 7 7 7 7 7 8 8 8 9 9 10 11 13 14 13
32 33 34 35 36 36 36 35 34 32 30 28 26 24 22 20 18 17 16 13 10 7 5 4 4 5 7 7 7 8 8 8 8 8 9 10 10 11 12 13 14 15 14
31 32 33 34 34 33 32 31 28 26 24 23 21 20 18 17 15 14 11 8 6 4 3 4 6 7 7 7 8 8 8 8 8 9 10 11 11 12 13 14 15 15 15
31 32 32 32 31 29 27 25 23 22 20 19 18 17 15 14 12 10 6 4 3 3 5 6 7 8 8 8 8 8 8 8 9 10 11 11 12 13 13 14 15 16 16
30 30 30 29 27 25 23 21 20 18 17 16 15 14 12 10 9 6 3 2 4 6 7 8 9 9 9 9 9 8 9 9 10 11 11 11 12 13 13 14 15 16 17
28 27 27 25 24 22 20 19 17 16 14 13 13 11 9 8 5 3 3 4 6 8 9 9 10 10 10 9 9 10 10 11 12 12 11 12 12 12 13 14 15 15 16
27 26 25 23 21 19 17 16 14 13 12 11 10 9 7 5 4 4 5 7 9 10 10 10 11 10 10 10 11 11 12 12 13 12 12 12 11 11 12 13 14 15 15
25 24 23 20 18 17 15 14 12 11 10 9 8 7 6 5 5 6 7 9 10 11 11 11 11 11 11 11 11 12 12 13 13 13 13 13 13 13 14 14 15 16 16
25 23 21 18 16 15 13 12 10 9 9 8 7 7 7 7 8 8 10 11 12 12 12 12 12 12 12 12 12 12 12 13 13 13 13 13 14 14 14 15 15 16 16
23 22 20 17 15 13 12 10 9 8 8 8 8 8 9 10 10 11 11 13 13 12 12 12 12 12 12 12 12 12 13 13 13 13 13 13 13 14 14 14 15 15 16
23 22 19 17 14 12 10 9 8 8 8 9 10 10 11 12 12 13 13 14 13 13 12 12 12 12 12 12 13 13 13 14 13 13 13 13 13 13 13 14 14 14 15
24 22 20 17 14 12 10 9 9 9 9 10 11 12 13 13 14 14 14 14 13 12 12 11 11 12 12 12 12 12 13 13 13 12 12 13 13 13 13 14 14 14 14
26 24 21 18 15 13 12 11 11 11 11 12 13 14 14 15 15 15 15 14 13 12 11 11 11 11 12 12 13 13 13 12 12 12 12 12 13 14 14 14 14 14 14
28 26 23 20 17 15 13 13 13 13 14 14 15 16 16 16 16 16 15 14 13 12 11 10 11 11 11 12 12 13 13 12 12 12 12 12 12 13 13 13 13 13 13
Wind_Direction
280 282 283 284 286 287 288 289 291 292 293 294 294 294 295 297 298 298 298 298 298 298 299 299 299 298 298 297 297 296 296 295 294 293 291 290 288 286 284 282 281 278 276
282 284 285 286 288 288 289 290 290 292 293 294 294 294 296 298 298 298 298 298 299 299 299 299 299 299 298 298 298 297 296 296 295 295 293 291 289 286 285 283 281 278 275
284 285 286 288 289 290 290 291 292 292 293 293 294 294 294 295 297 298 298 299 299 300 300 300 300 300 300 299 299 298 298 297 297 296 294 291 288 287 286 284 281 279 276
286 286 288 289 290 291 291 291 292 292 293 293 293 293 293 295 297 298 299 300 300 301 301 302 302 302 301 301 300 300 299 299 298 297 295 291 290 289 287 285 282 278 275
286 287 289 290 290 291 291 291 291 290 291 293 293 294 296 298 299 299 300 300 301 302 303 303 304 303 303 302 302 302 301 301 300 299 297 294 292 290 288 286 282 278 276
285 286 288 290 290 290 290 290 290 291 293 294 295 297 299 301 301 301 301 302 303 304 305 305 305 305 304 304 304 303 302 301 301 300 299 297 295 293 291 289 287 281 277
285 286 288 289 289 290 290 290 291 293 295 295 297 300 302 303 302 302 303 304 305 306 306 306 306 306 307 307 306 304 303 303 302 303 304 304 303 301 300 298 296 291 284
285 286 287 287 288 288 289 290 291 293 294 297 300 302 303 302 302 303 304 306 307 307 307 308 309 310 310 310 309 308 307 307 308 311 313 314 316 318 318 314 311 307 299
285 286 286 286 287 287 289 291 293 296 300 303 303 303 303 303 304 305 307 308 308 308 310 312 314 315 314 315 316 315 314 315 321 328 335 341 345 345 341 336 329 322 316
284 286 286 286 286 289 292 296 299 301 303 304 304 304 304 306 307 308 309 310 310 311 313 316 318 319 319 323 326 330 337 349 0 5 7 10 7 3 359 355 350 343 336
284 284 286 288 292 295 298 301 302 303 304 304 305 306 307 307 308 309 311 312 313 315 316 319 322 324 329 338 352 9 21 26 26 27 25 21 17 12 7 5 2 357 354
285 288 291 295 298 300 301 303 304 305 306 306 307 308 309 310 310 312 315 317 318 319 321 325 330 339 355 17 33 41 44 46 44 38 35 30 25 23 23 20 18 18 18
295 298 301 303 304 304 305 306 307 307 308 309 310 311 312 313 314 316 319 321 323 326 331 339 354 16 43 54 56 56 54 52 47 44 42 40 42 44 38 32 30 30 30
303 304 304 305 306 307 308 309 309 310 312 313 315 316 316 317 319 321 323 326 330 338 353 13 41 61 67 66 62 58 56 53 52 53 52 58 60 54 45 40 39 39 40
307 308 309 310 311 312 313 313 313 314 316 317 319 320 320 321 321 323 325 331 341 3 41 68 76 78 73 68 62 59 58 57 60 64 70 71 67 60 53 48 46 47 50
313 314 315 316 317 318 318 319 319 319 321 322 324 324 324 324 325 328 333 346 21 71 91 91 89 81 74 70 65 62 63 68 75 82 82 77 72 65 61 55 52 53 56
321 322 322 323 324 324 324 325 325 326 326 327 329 329 328 328 330 336 356 47 99 108 103 99 91 82 74 67 65 67 75 84 91 92 88 83 77 71 66 60 57 58 59
328 328 329 329 329 329 330 330 330 331 331 333 334 335 335 338 346 12 61 107 116 113 108 102 91 82 71 66 69 79 89 97 99 96 91 89 84 75 67 62 61 61 61
335 334 334 334 334 335 336 336 336 337 338 341 344 348 355 6 31 76 103 116 119 115 110 101 90 80 72 70 77 88 97 104 103 97 94 92 85 75 69 67 66 65 65
340 340 339 339 339 340 342 344 346 348 351 354 0 10 25 48 82 100 112 119 119 115 109 99 89 81 75 75 84 94 103 108 106 100 96 91 84 77 73 72 73 73 72
347 347 346 346 347 348 350 354 358 2 5 12 24 43 64 79 94 104 114 120 120 115 108 97 88 83 78 78 88 97 105 110 108 103 97 90 83 78 74 73 75 77 77
354 355 355 355 355 357 1 6 11 17 24 38 55 71 79 86 96 103 112 120 119 113 107 97 88 84 81 83 91 98 105 111 110 105 97 89 82 78 75 74 75 76 78
5 4 4 4 5 9 16 24 31 40 53 65 76 84 86 89 95 101 110 117 117 113 107 98 90 85 83 86 93 99 104 108 108 104 98 90 82 78 75 73 73 74 75
15 13 13 14 18 25 35 44 52 62 72 79 87 91 90 93 97 101 107 112 113 110 106 99 93 89 86 88 94 99 103 105 103 99 95 89 84 79 75 74 74 74 75
22 21 22 25 32 40 49 60 67 74 82 88 93 93 92 94 97 99 103 105 107 106 104 99 95 93 90 91 95 99 101 101 102 99 94 89 84 79 75 74 74 74 75
28 29 31 35 42 50 60 71 77 81 87 92 94 94 94 95 96 98 99 100 101 102 102 100 99 97 93 93 95 97 98 97 97 96 93 89 84 79 74 72 72 72 72
Height
5762 5759 5757 5753 5750 5747 5743 5739 5734 5730 5725 5720 5715 5709 5703 5698 5692 5687 5681 5676 5670 5663 5657 5650 5643 5635 5628 5620 5612 5605 5597 5589 5585 5582 5575 5570 5565 5561 5558 5556 5554 5553 5553
5752 5749 5746 5743 5739 5735 5731 5727 5722 5717 5712 5706 5700 5695 5689 5684 5679 5673 5668 5662 5656 5649 5642 5634 5627 5619 5611 5603 5595 5587 5579 5572 5565 5562 5558 5553 5549 5546 5544 5542 5540 5538 5538
5741 5738 5735 5731 5727 5723 5718 5714 5709 5703 5698 5692 5686 5681 5675 5670 5665 5660 5654 5648 5641 5634 5627 5619 5611 5603 5595 5586 5578 5570 5563 5556 5550 5546 5544 5540 5537 5533 5531 5530 5528 5526 5525
5730 5726 5723 5719 5715 5710 5705 5700 5695 5690 5684 5678 5672 5666 5661 5657 5652 5646 5640 5634 5627 5620 5612 5604 5595 5587 5579 5570 5563 5556 5549 5543 5538 5534 5531 5529 5526 5523 5521 5519 5518 5516 5515
5717 5714 5710 5706 5702 5697 5692 5687 5681 5676 5670 5664 5658 5653 5648 5644 5639 5632 5627 5620 5613 5606 5597 5589 5580 5572 5563 5556 5550 5544 5538 5533 5529 5525 5522 5520 5518 5515 5513 5511 5510 5509 5508
5705 5701 5697 5693 5689 5684 5679 5674 5668 5662 5656 5651 5646 5641 5636 5631 5625 5619 5613 5606 5599 5591 5583 5575 5566 5559 5552 5545 5540 5534 5530 5526 5522 5519 5516 5514 5511 5509 5508 5506 5505 5504 5503
5693 5689 5685 5681 5677 5672 5666 5661 5656 5650 5644 5639 5634 5629 5624 5618 5612 5606 5599 5592 5585 5577 5570 5562 5555 5548 5542 5537 5531 5527 5523 5519 5517 5514 5512 5510 5508 5506 5505 5503 5501 5500 5499
5681 5677 5673 5669 5665 5660 5654 5649 5643 5638 5633 5628 5622 5616 5612 5607 5600 5594 5586 5579 5572 5565 5558 5552 5546 5540 5534 5529 5525 5522 5519 5516 5514 5512 5510 5508 5506 5505 5503 5501 5500 5498 5497
5670 5666 5662 5658 5653 5648 5642 5637 5631 5626 5620 5615 5610 5605 5600 5594 5588 5581 5574 5567 5561 5555 5549 5544 5539 5534 5529 5525 5522 5519 5517 5515 5513 5511 5509 5508 5506 5504 5503 5501 5499 5497 5496
5659 5655 5651 5646 5641 5636 5630 5625 5620 5615 5609 5604 5599 5594 5588 5582 5576 5569 5563 5558 5553 5547 5543 5538 5534 5530 5527 5523 5520 5518 5516 5515 5513 5512 5510 5509 5507 5505 5503 5501 5499 5497 5495
5649 5644 5640 5634 5629 5625 5619 5614 5609 5604 5599 5594 5588 5583 5577 5571 5565 5560 5555 5551 5546 5542 5538 5534 5531 5528 5525 5523 5520 5519 5517 5516 5515 5513 5512 5510 5509 5507 5505 5502 5500 5497 5495
5638 5634 5629 5624 5619 5615 5610 5604 5599 5593 5588 5583 5578 5572 5567 5562 5557 5552 5549 5545 5541 5538 5535 5532 5530 5528 5526 5523 5522 5520 5519 5518 5516 5515 5514 5512 5510 5508 5506 5504 5502 5499 5496
5629 5625 5620 5615 5610 5605 5600 5595 5589 5584 5579 5574 5569 5564 5559 5555 5551 5547 5544 5541 5538 5535 5533 5531 5530 5528 5527 5525 5524 5522 5521 5520 5519 5518 5516 5514 5513 5511 5509 5507 5504 5502 5499
5622 5617 5612 5607 5601 5596 5590 5585 5580 5575 5570 5565 5561 5557 5553 5549 5546 5543 5541 5538 5536 5535 5533 5532 5531 5530 5529 5527 5526 5525 5524 5523 5521 5520 5519 5517 5516 5514 5513 5510 5508 5505 5503
5615 5610 5604 5599 5593 5587 5582 5576 5572 5567 5563 5559 5555 5551 5548 5545 5543 5541 5538 5537 5535 5534 5534 5533 5532 5532 5531 5530 5529 5528 5526 5525 5524 5523 5522 5521 5520 5519 5517 5515 5512 5510 5507
5608 5602 5596 5590 5585 5579 5574 5569 5564 5561 5557 5554 5550 5547 5545 5543 5540 5539 5537 5536 5536 5535 5535 5535 5535 5534 5533 5532 5531 5530 5529 5528 5527 5527 5526 5525 5524 5523 5522 5520 5518 5515 5513
5601 5594 5588 5583 5577 5573 5568 5564 5560 5557 5553 5550 5547 5545 5543 5541 5539 5538 5537 5537 5537 5537 5537 5537 5537 5537 5536 5535 5534 5533 5532 5531 5531 5531 5530 5530 5529 5528 5527 5525 5523 5521 5519
5595 5589 5583 5577 5572 5568 5564 5560 5556 5553 5551 5548 5546 5543 5541 5540 5538 5538 5538 5538 5539 5539 5540 5540 5540 5540 5539 5538 5537 5536 5535 5535 5535 5535 5535 5534 5534 5533 5532 5530 5529 5527 5525
5590 5584 5578 5573 5568 5564 5560 5557 5554 5551 5549 5547 5544 5542 5541 5540 5539 5539 5539 5540 5541 5542 5543 5543 5543 5543 5542 5541 5540 5540 5539 5540 5540 5540 5540 5539 5539 5538 5537 5536 5534 5532 5531
5586 5580 5575 5570 5565 5562 5558 5555 5553 5550 5548 5546 5544 5542 5541 5541 5541 5541 5542 5543 5544 5545 5546 5546 5546 5546 5545 5545 5544 5544 5544 5544 5545 5545 5545 5544 5544 5543 5542 5541 5540 5538 5537
5583 5577 5572 5568 5564 5560 5557 5554 5552 5550 5548 5546 5545 5544 5543 5543 5543 5544 5544 5546 5547 5548 5549 5550 5550 5550 5549 5549 5548 5548 5549 5549 5550 5550 5550 5550 5549 5548 5548 5547 5545 5544 5543
5582 5576 5571 5566 5563 5559 5557 5554 5552 5550 5549 5548 5547 5546 5546 5546 5546 5547 5548 5549 5551 5552 5553 5554 5554 5554 5553 5553 5553 5553 5553 5554 5555 5555 5555 5555 5554 5554 5553 5552 5551 5550 5549
5582 5576 5571 5566 5563 5560 5557 5555 5553 5552 5551 5550 5550 5550 5550 5550 5550 5551 5552 5553 5555 5556 5557 5558 5558 5558 5558 5558 5558 5558 5559 5559 5560 5560 5560 5560 5560 5559 5559 5558 5557 5556 5555
5583 5577 5572 5567 5564 5561 5559 5557 5555 5554 5554 5553 5553 5553 5554 5554 5555 5555 5556 5557 5559 5560 5561 5562 5562 5562 5562 5562 5562 5563 5564 5564 5565 5565 5565 5565 5565 5564 5564 5563 5562 5562 5561
5586 5580 5574 5569 5566 5563 5561 5560 5559 5558 5557 5557 5558 5558 5559 5559 5560 5560 5561 5562 5563 5564 5565 5566 5566 5567 5567 5567 5567 5568 5568 5569 5570 5570 5570 5570 5570 5569 5569 5568 5568 5567 5567
5590 5583 5578 5573 5569 5567 5565 5564 5563 5562 5562 5562 5563 5563 5564 5564 5565 5565 5566 5567 5568 5569 5569 5570 5570 5571 5571 5572 5572 5573 5573 5574 5574 5575 5575 5575 5575 5574 5574 5574 5573 5573 5572